DateTimeUTC,F1_A11,F1_S11,BsB_S11,BsG_S11,BsR_S11,BbsB_S11,BbsG_S11,BbsR_S11,BaB_A11,BaG_A11,BaR_A11,Tu_S11,T_S11,Uu_S11,U_S11,P_S11,T1_A11
2021-09-14T02:00:00Z,00000200,20000000,,,,,,,0000.26,0000.47,-000.24,18.9,25.7,02.0,01.3,0660.0,31.1
2021-09-14T02:01:00Z,00000200,20000000,,,,,,,-000.51,-000.34,0000.16,18.9,25.8,02.0,01.3,0660.0,31.1
2021-09-14T02:02:00Z,00000200,20000000,,,,,,,0000.02,-000.02,-000.08,18.9,25.8,02.0,01.3,0660.1,31.1
2021-09-14T02:03:00Z,00000200,60000000,,,,,,,0000.16,-000.02,-000.37,18.9,25.8,02.0,01.3,0660.1,31.1
2021-09-14T02:04:00Z,00000200,40000000,0001.63,0000.51,0000.71,0000.36,-000.08,0000.07,-000.07,-000.31,0000.01,19.0,25.6,02.0,01.3,0661.1,31.1
2021-09-14T02:05:00Z,00000200,00000000,0000.83,0000.93,0000.37,0000.13,-000.11,0000.02,0000.10,0000.38,0000.37,19.1,25.6,02.0,01.4,0661.1,31.1
2021-09-14T02:06:00Z,00000200,00000000,0000.77,0000.74,0000.45,0000.52,0000.03,-000.01,0000.35,0000.14,0000.23,19.0,25.5,02.0,01.4,0661.1,31.1
2021-09-14T02:07:00Z,00000200,00000000,0001.02,0000.50,0000.13,-000.19,0000.06,-000.10,0000.03,0000.39,0000.02,19.0,25.5,02.0,01.3,0661.1,31.1
2021-09-14T02:08:00Z,00000200,01000000,0001.02,0000.55,0000.19,0000.40,0000.18,0000.02,0000.37,-000.23,0000.23,19.0,25.5,02.0,01.4,0661.1,31.1
2021-09-14T02:09:00Z,00000200,00000000,0000.24,0000.58,0000.42,0000.39,0000.18,0000.02,0000.00,0000.32,0000.07,18.9,25.5,02.0,01.3,0661.2,31.1
2021-09-14T02:10:00Z,00000200,00000000,0000.77,0000.46,0000.59,0000.86,0000.35,-000.04,0000.53,0000.29,0000.26,18.9,25.5,02.0,01.3,0661.2,31.1
2021-09-14T02:11:00Z,00000200,00000000,0000.79,0000.55,0000.31,0000.55,0000.13,0000.26,0000.58,0000.74,0000.29,18.9,25.5,02.1,01.4,0661.2,31.0
2021-09-14T02:12:00Z,00000200,00000000,0001.17,0000.58,0000.83,0000.19,0000.09,0000.23,0000.43,0000.31,0000.28,19.0,25.5,02.0,01.4,0661.1,31.1
2021-09-14T02:13:00Z,00000200,01000000,0002.18,0000.58,0000.23,0000.31,0000.29,-000.43,0000.12,0000.69,0000.55,19.1,25.6,01.9,01.3,0661.1,31.1
2021-09-14T02:14:00Z,00000200,00000000,0000.88,0000.63,0000.47,0000.62,-000.02,-000.09,0000.28,0000.01,-000.13,19.2,25.6,02.0,01.4,0661.1,31.1
2021-09-14T02:15:00Z,00000200,01000000,0001.18,0000.65,0000.62,0000.69,-000.02,-000.02,0000.17,0000.27,0000.44,19.3,25.7,01.9,01.3,0661.1,31.1
2021-09-14T02:16:00Z,00000200,00000000,0000.74,0000.54,0000.47,0001.06,-000.23,0000.11,0000.25,0000.07,0000.26,19.3,25.7,02.0,01.4,0661.1,31.1
2021-09-14T02:17:00Z,00000200,00000000,0001.84,0000.17,0000.15,0000.31,0000.01,0000.15,0000.31,0000.13,0000.25,19.3,25.7,01.9,01.3,0661.1,31.1
2021-09-14T02:18:00Z,00000200,00000000,0001.02,0000.56,0000.15,0000.13,0000.15,-000.20,0000.14,-000.30,-000.23,19.3,25.7,01.9,01.3,0661.1,31.1
2021-09-14T02:19:00Z,00000200,01000000,0001.22,0000.71,0000.29,0000.17,-000.14,0000.07,-000.11,0000.26,-000.28,19.2,25.6,01.9,01.3,0661.1,31.1
2021-09-14T02:20:00Z,00000200,01000000,0001.19,0000.61,0000.60,0000.66,0000.04,0000.09,0000.27,0000.15,0000.52,19.2,25.6,01.9,01.3,0661.0,31.1
2021-09-14T02:21:00Z,00000200,00000000,0000.76,0000.77,0000.46,0000.47,-000.01,0000.09,-000.15,0000.37,-000.47,19.2,25.6,01.9,01.3,0661.0,31.1
2021-09-14T02:22:00Z,00000200,00000000,0000.86,0000.61,0000.30,0000.04,0000.08,0000.10,0000.13,-000.24,0000.24,19.1,25.6,01.9,01.3,0661.0,31.1
2021-09-14T02:23:00Z,00000200,01000000,0000.77,0000.49,0000.39,0000.34,-000.02,0000.05,0000.42,0000.42,0000.51,19.1,25.6,01.9,01.3,0661.0,31.1
2021-09-14T02:24:00Z,00000200,01000000,0000.85,0000.75,0000.31,-000.10,0000.09,0000.10,-000.18,-000.12,0000.30,19.0,25.6,01.8,01.2,0661.0,31.1
2021-09-14T02:25:00Z,00000200,00000000,0001.13,0000.61,0000.22,0001.13,0000.09,-000.01,0000.53,0000.37,-000.17,19.0,25.5,01.9,01.3,0661.0,31.0
2021-09-14T02:26:00Z,00000200,00000000,0000.95,0000.80,0000.55,0000.38,0000.09,-000.02,0000.74,0000.73,0000.45,19.0,25.5,01.9,01.3,0661.0,31.1
2021-09-14T02:27:00Z,00000200,01000000,0000.74,0000.65,0000.20,0001.09,0000.27,-000.27,-000.05,-000.06,0000.19,19.1,25.5,01.8,01.2,0661.0,31.1
2021-09-14T02:28:00Z,00000200,00000000,0001.98,0000.57,0000.56,0000.41,0000.26,-000.01,0000.42,0000.30,0000.45,19.2,25.6,01.9,01.3,0661.1,31.1
2021-09-14T02:29:00Z,00000200,00000000,0001.02,0000.51,0000.45,0000.32,0000.04,-000.19,0000.31,0000.19,0000.08,19.3,25.6,01.8,01.2,0661.1,31.1
2021-09-14T02:30:00Z,00000200,01000000,0001.20,0000.86,0000.61,-000.13,0000.00,0000.21,0000.14,0000.39,-000.09,19.3,25.7,01.8,01.2,0661.1,31.1
2021-09-14T02:31:00Z,00000200,01000000,0000.58,0000.45,0000.68,0000.38,0000.08,-000.00,0000.32,-000.06,0000.51,19.3,25.7,01.8,01.2,0661.1,31.1
2021-09-14T02:32:00Z,00000200,01000000,0001.27,0000.78,0000.62,0000.19,0000.03,-000.09,-000.18,-000.12,-000.40,19.3,25.7,01.8,01.2,0661.0,31.1
2021-09-14T02:33:00Z,00000200,01000000,0000.74,0000.91,0000.29,0000.58,0000.30,0000.27,-000.14,-000.09,0000.10,19.2,25.7,01.8,01.2,0661.1,31.1
2021-09-14T02:34:00Z,00000200,01000000,0001.41,0001.10,0000.45,0000.52,0000.32,-000.17,0000.12,0000.01,-000.31,19.2,25.6,01.7,01.1,0661.1,31.1
2021-09-14T02:35:00Z,00000200,01000000,0001.48,0000.91,0000.63,0000.75,0000.38,0000.01,0000.10,0000.32,0000.67,19.2,25.6,01.7,01.1,0661.0,31.1
2021-09-14T02:36:00Z,00000200,01000000,0001.40,0000.92,0000.73,0000.18,-000.02,0000.11,0000.24,0000.32,-000.12,19.1,25.6,01.6,01.1,0661.0,31.1
2021-09-14T02:37:00Z,00000200,01000000,0001.68,0000.75,0000.40,0000.60,0000.01,-000.06,0000.15,-000.13,0000.18,19.1,25.6,01.7,01.1,0661.0,31.1
2021-09-14T02:38:00Z,00000200,01000000,0001.06,0000.63,0000.36,0000.16,0000.29,0000.01,0000.31,0000.24,0000.05,19.1,25.6,01.6,01.1,0661.0,31.1
2021-09-14T02:39:00Z,00000200,01000000,0001.35,0000.92,0000.49,0000.47,-000.01,-000.26,0000.10,0000.38,0000.33,19.0,25.5,01.5,01.0,0661.1,31.0
2021-09-14T02:40:00Z,00000200,01000000,0001.46,0000.93,0000.52,0000.57,-000.01,0000.09,-000.13,-000.06,-000.09,19.0,25.5,01.6,01.1,0661.0,31.1
2021-09-14T02:41:00Z,00000200,01000000,0001.19,0000.71,0000.51,0000.91,0000.33,-000.24,0000.89,0000.46,0000.69,19.0,25.5,01.5,01.0,0661.0,31.1
2021-09-14T02:42:00Z,00000200,01000000,0000.61,0000.40,0000.65,0000.58,0000.13,0000.06,0000.27,0000.25,0000.30,19.1,25.5,01.5,01.0,0661.0,31.1
2021-09-14T02:43:00Z,00000200,01000000,0000.77,0000.50,0000.26,0000.58,0000.28,0000.06,-000.05,0000.59,0000.20,19.2,25.6,01.5,01.0,0661.0,31.1
2021-09-14T02:44:00Z,00000200,01000000,0001.44,0000.60,0000.30,0000.09,0000.52,0000.07,0000.06,-000.06,0000.13,19.2,25.6,01.3,00.9,0661.1,31.1
2021-09-14T02:45:00Z,00000200,01000000,0000.81,0000.84,0000.21,0000.02,0000.02,-000.17,0000.36,0000.29,-000.15,19.3,25.7,01.3,00.9,0661.0,31.1
2021-09-14T02:46:00Z,00000200,01000000,0001.26,0000.86,0000.84,0000.03,-000.07,0000.05,-000.23,-000.42,0000.04,19.2,25.6,01.3,00.9,0661.0,31.1
2021-09-14T02:47:00Z,00000200,01000000,0001.26,0000.73,0000.78,0000.64,0000.19,0000.40,0000.08,0000.30,-000.01,19.2,25.6,01.3,00.9,0661.0,31.1
2021-09-14T02:48:00Z,00000200,01000000,0001.52,0000.64,0000.51,0000.38,0000.39,-000.24,0000.62,0000.44,0000.53,19.2,25.6,01.3,00.9,0661.0,31.1
2021-09-14T02:49:00Z,00000200,01000000,0000.97,0000.74,0000.52,0000.81,0000.17,-000.15,-000.05,-000.10,-000.32,19.1,25.6,01.3,00.8,0660.9,31.1
2021-09-14T02:50:00Z,00000200,01000000,0001.13,0000.67,0000.52,0000.09,-000.18,-000.06,0000.22,0000.27,0000.39,19.1,25.5,01.3,00.9,0660.9,31.1
2021-09-14T02:51:00Z,00000200,01000000,0001.21,0000.81,0000.62,0000.42,0000.05,0000.06,0000.36,0000.10,0000.21,19.1,25.6,01.2,00.8,0660.9,31.1
2021-09-14T02:52:00Z,00000200,01000000,0001.60,0000.56,0000.10,0000.01,-000.00,-000.18,0000.35,0000.51,-000.11,19.0,25.5,01.3,00.9,0660.9,31.0
2021-09-14T02:53:00Z,00000200,01000000,0000.86,0000.61,0000.27,0000.49,0000.21,0000.22,0000.22,0000.09,-000.10,19.0,25.5,01.4,00.9,0660.9,31.1
2021-09-14T02:54:00Z,00000200,01000000,0000.89,0000.84,0000.55,0000.85,0000.00,-000.10,-000.07,0000.02,0000.45,19.0,25.5,01.3,00.8,0660.9,31.0
2021-09-14T02:55:00Z,00000200,01000000,0001.08,0001.11,0000.46,0000.38,0000.10,0000.11,0000.74,0000.06,0000.46,19.0,25.5,01.2,00.8,0660.9,31.0
2021-09-14T02:56:00Z,00000200,01000000,0001.78,0000.96,0000.49,0000.58,0000.42,0000.03,0000.17,0000.87,0000.38,19.0,25.5,01.2,00.8,0660.9,31.0
2021-09-14T02:57:00Z,00000200,41000000,,,,,,,0001.02,0000.47,0000.50,19.1,25.5,01.2,00.8,0661.0,31.1
2021-09-14T02:58:00Z,00000200,61000000,,,,,,,-000.53,-000.05,-000.55,18.8,25.7,01.3,00.9,0659.9,31.1
2021-09-14T02:59:00Z,00000200,21000000,,,,,,,-000.08,-000.04,0000.61,18.8,25.8,01.2,00.8,0659.9,31.1
